SCP
-0 -0 -0 -0 -0 -0 -0 0 0 0 0 0 -0 -0 -0 -0 0 0 0 0 -0 -0 0 0 0 -0 -0 -0 -0 -0 -0 -0 -0 -0 -0 0 -0 0 0 0 0 0 0
-0 -0 -0 -0 -0 -0 -0 0 0 0 0 0 -0 -0 0 0 0 0 0 0 -0 -0 0 0 0 0 0 0 0 -0 -0 0 -0 -0 0 0 0 -0 0 0 0 0 0
-0 -0 -0 -0 -0 -0 -0 0 0 0 0 -0 -0 0 0 0 0 0 0 0 -0 0 0 0 0 0 0 0 0 -0 -0 -0 -0 0 0 0 0 0 0 0 0 0 0
0 -0 -0 -0 -0 -0 -0 0 -0 -0 -0 -0 -0 0 0 0 0 0 0 0 -0 0 0 0 0 0 0 0 0 -0 -0 -0 -0 0 0 0 0 0 0 0 0 0 0
0 0 -0 -0 -0 -0 -0 -0 -0 -0 -0 -0 -0 -0 -0 -0 -0 -0 0 -0 0 0 0 0 0 0 0 0 0 0 -0 -0 -0 0 0 0 0 0 0 0 0 0 0
0 0 0 -0 -0 -0 -0 -0 -0 -0 -0 -0 -0 -0 -0 -0 -0 -0 -0 0 0 0 0 0 0 0 0 0 0 0 0 0 0 0 0 0 0 0 0 0 1 0 0
0 0 0 -0 -0 -0 -0 -0 -0 -0 -0 -0 -0 -0 -0 -0 -0 -0 0 0 0 0 0 0 0 0 0 0 0 0 0 0 0 0 0 0 0 1 1 1 1 1 0
0 0 0 0 -0 -0 -0 -0 -0 -0 -0 -0 -0 -0 -0 -0 -0 -0 0 0 0 0 0 0 0 0 0 0 0 0 0 0 0 0 0 0 0 1 1 1 1 1 1
0 0 0 0 0 0 -0 -0 -0 -0 -0 -0 -0 -0 -0 -0 -0 -0 0 0 0 0 0 0 0 0 0 0 0 0 0 0 0 0 0 0 0 1 1 1 1 1 1
0 0 0 0 0 0 0 0 0 0 -0 -0 -0 -0 -0 -0 -0 0 0 0 0 0 0 0 0 0 0 0 0 0 0 0 0 0 0 0 1 2 2 1 1 1 1
0 0 0 0 0 0 0 0 0 0 0 -0 -0 -0 -0 0 0 0 0 0 0 0 0 0 0 0 0 0 0 0 0 0 0 0 0 0 1 1 2 1 0 0 0
0 0 0 0 0 0 0 0 0 0 0 -0 -0 0 0 0 0 0 0 0 0 0 0 0 0 0 0 0 0 0 0 0 0 0 0 0 1 1 1 0 1 1 1
0 0 0 0 0 0 0 0 0 0 -0 -0 -0 0 -0 -0 -0 0 0 0 0 0 0 0 0 0 0 0 0 0 0 0 0 0 0 1 1 1 1 1 1 1 1
0 0 0 0 0 0 0 0 0 0 -0 -0 -0 0 0 -0 0 0 0 0 0 0 0 0 0 0 0 0 0 0 0 0 0 0 0 1 1 2 2 2 2 1 1
0 0 0 0 0 0 0 0 0 -0 -0 -0 -0 -0 0 0 -0 0 0 0 0 0 0 0 0 0 0 0 0 0 0 0 0 0 0 2 1 2 2 3 2 2 1
0 0 0 0 0 0 0 0 0 0 0 -0 -0 -0 0 0 0 0 0 0 0 0 0 0 0 0 0 0 0 0 0 0 0 0 1 1 2 1 2 3 3 2 3
1 2 1 0 2 2 1 1 1 0 0 0 0 0 0 0 0 0 0 0 0 0 1 1 0 0 0 1 0 0 1 1 1 1 1 2 2 3 3 2 3 4 0
1 1 1 2 4 3 2 1 1 0 1 0 1 0 0 0 0 0 0 0 1 1 1 1 1 1 1 0 0 1 1 0 1 1 0 1 1 1 1 3 4 2 1
1 2 3 3 2 4 2 1 1 1 1 0 0 0 0 0 0 0 1 1 1 1 1 1 1 1 1 1 1 1 0 0 0 0 0 0 0 0 1 3 3 1 1
4 3 5 5 1 1 1 1 1 1 0 0 1 1 1 1 1 1 1 1 1 1 1 1 0 0 0 0 0 0 0 0 0 0 0 0 0 0 1 1 1 1 0
6 5 3 2 2 2 1 1 1 0 1 2 2 1 1 1 1 1 1 1 1 0 0 0 0 0 0 0 0 0 0 0 0 0 0 0 0 0 0 1 1 0 0
2 4 5 4 2 1 1 0 0 0 2 2 1 1 1 0 0 0 0 0 0 0 0 0 0 0 0 0 0 0 0 0 0 0 0 0 0 0 0 0 0 0 0
-0 3 7 3 3 2 1 -0 1 2 2 0 0 0 0 0 0 0 0 0 0 0 0 0 0 0 0 0 0 0 0 0 0 0 -0 0 0 0 0 0 1 0 0
0 0 3 3 1 1 0 1 1 1 1 0 0 0 0 0 0 0 0 0 0 0 0 0 0 0 0 0 0 0 0 0 0 0 0 0 0 0 0 0 0 0 0
0 0 0 1 2 0 0 1 1 0 0 0 0 0 0 0 0 0 0 0 0 0 0 0 0 0 0 0 0 0 0 0 0 0 0 0 0 0 0 0 0 0 0
0 -0 0 0 0 0 1 1 0 0 0 0 0 0 0 0 0 0 0 0 0 0 0 0 0 0 0 0 0 0 0 0 0 0 0 0 0 0 0 0 0 0 0
Wind_Speed_500mb
59 54 51 49 50 49 46 41 38 37 37 41 43 44 42 38 36 33 32 33 32 32 31 30 28 27 25 25 25 25 26 24 21 23 28 32 31 28 24 22 19 20 16
63 59 52 50 52 49 46 42 38 35 35 39 41 42 40 36 32 30 29 29 28 27 25 23 22 22 22 21 22 23 24 23 27 24 20 18 22 23 29 29 21 15 12
65 61 55 51 53 50 46 42 39 34 32 36 40 40 37 34 30 27 26 25 24 22 21 18 16 15 15 16 14 14 18 19 14 18 19 19 13 13 22 28 24 17 13
66 62 56 53 53 50 46 42 38 34 30 33 37 37 33 32 28 24 23 21 20 18 17 15 14 12 10 10 8 9 10 12 15 15 18 19 15 9 19 26 24 19 16
66 60 54 53 54 51 47 42 38 33 30 31 35 34 31 28 26 23 20 18 17 15 12 11 10 10 9 9 9 9 8 6 8 9 4 9 11 18 25 28 23 20 17
66 58 54 53 53 51 48 43 37 31 29 31 35 34 29 27 23 20 17 15 13 10 9 9 8 8 10 10 11 11 10 8 1 4 10 5 14 22 23 28 28 21 18
65 57 55 52 51 50 47 42 37 33 30 31 34 32 28 24 20 17 14 11 8 6 6 6 7 9 10 10 12 14 14 13 11 3 6 3 13 25 24 27 27 24 20
63 56 54 52 49 46 43 40 37 34 32 33 35 31 26 21 17 13 11 7 4 5 5 6 8 9 11 13 13 15 18 21 19 15 12 14 15 24 27 29 31 27 23
59 58 55 53 50 44 41 40 39 37 35 34 34 29 24 19 14 9 6 3 1 4 7 9 10 12 14 16 17 18 19 25 23 18 8 13 19 27 32 30 34 32 28
56 56 56 53 50 47 45 43 41 39 37 34 31 27 22 17 12 6 3 3 6 9 11 12 13 15 17 18 18 17 18 23 18 11 11 16 26 30 35 40 39 37 34
54 56 55 54 51 48 46 44 42 39 36 34 31 26 21 14 9 4 5 5 8 11 15 17 18 18 22 20 12 17 20 20 21 23 25 30 37 39 44 42 42 44 42
61 62 57 53 51 49 46 43 41 40 36 32 28 24 17 13 12 6 3 7 10 18 14 17 17 18 15 13 13 18 22 25 26 28 32 40 43 41 42 39 44 48 47
51 62 60 56 52 49 46 43 39 36 34 31 27 23 23 17 11 8 9 10 14 15 21 21 18 22 18 23 28 36 44 38 31 30 37 41 37 37 46 48 52 54 48
51 55 54 51 48 43 42 36 34 32 28 26 23 24 23 20 10 7 14 12 14 12 18 22 24 28 27 28 36 39 29 26 27 33 41 47 52 50 47 52 59 50 44
59 53 51 51 50 40 29 16 29 30 20 19 15 10 16 20 19 14 11 18 19 18 23 23 27 31 31 31 36 39 40 39 40 43 45 43 48 49 50 59 58 63 41
64 66 58 55 64 47 42 23 25 22 15 16 11 5 5 15 17 15 19 14 6 10 15 22 29 32 30 33 47 45 36 40 43 49 51 54 61 47 55 61 58 68 56
81 80 69 61 68 42 45 31 23 28 22 19 16 8 9 7 19 18 14 16 10 11 19 27 36 30 33 25 44 48 40 51 47 48 51 57 63 66 72 54 46 60 51
91 87 76 69 76 62 55 50 46 41 45 39 19 13 13 16 16 15 7 9 8 17 20 25 35 36 35 36 35 40 36 44 43 45 55 60 65 62 59 55 52 49 47
84 83 76 69 76 67 62 52 48 44 40 35 31 23 13 5 6 4 6 12 23 25 29 33 38 44 47 43 41 48 52 52 54 56 53 53 58 62 64 60 55 44 52
80 70 71 74 64 61 59 53 51 42 41 32 27 24 29 15 13 15 18 19 21 24 28 33 35 38 43 46 47 47 51 53 51 50 52 50 35 43 52 61 61 62 51
69 74 71 62 53 56 64 62 52 43 43 42 33 28 35 29 22 25 22 22 31 24 26 29 32 36 37 45 52 58 58 50 46 41 40 47 53 55 38 42 51 53 47
34 80 80 71 59 53 50 45 46 47 41 40 44 34 34 26 24 29 21 11 9 9 17 22 28 34 37 42 47 49 39 65 42 58 59 55 58 58 51 52 48 39 46
96 88 90 79 53 52 50 54 45 43 48 43 40 35 26 20 11 10 8 4 7 13 19 26 29 37 42 41 36 31 25 23 76 67 70 50 58 59 50 44 50 54 47
84 53 77 75 68 60 58 41 48 53 59 47 34 22 18 17 18 18 14 9 12 13 16 24 32 42 44 38 36 37 34 38 56 53 63 70 59 60 58 49 44 42 51
42 43 79 75 68 62 50 45 50 50 39 32 22 21 25 25 20 14 9 7 10 16 23 31 39 47 41 33 39 47 48 49 44 59 80 79 67 55 45 41 44 46 49
17 32 23 40 59 55 52 47 49 40 34 39 30 32 29 21 14 9 9 15 20 25 32 38 46 52 44 38 38 43 50 48 56 51 62 80 84 75 66 59 50 44 48
Wind_Direction_500mb
156 156 155 153 147 145 140 134 124 116 115 122 125 125 123 118 117 113 106 103 103 104 103 100 97 95 96 91 86 82 77 77 82 73 75 64 50 37 15 7 29 37 36
155 155 154 152 150 148 144 137 128 121 118 124 128 127 122 117 113 107 106 106 103 103 103 101 98 93 86 89 81 78 73 79 72 65 64 41 42 36 21 358 358 13 17
156 154 154 154 153 150 146 141 134 126 122 128 133 128 123 117 111 109 106 104 103 101 99 98 93 91 85 76 72 68 70 73 77 58 35 10 6 23 10 354 344 348 348
155 155 154 154 152 152 149 145 139 133 128 131 136 133 127 119 116 112 109 106 105 99 95 90 87 81 72 66 51 47 55 72 91 73 43 28 336 334 347 336 337 330 335
153 154 153 152 151 152 150 148 146 140 131 134 140 137 131 126 121 118 115 108 103 97 90 84 74 64 57 47 31 24 24 49 114 82 53 354 339 319 307 319 326 322 317
153 153 150 151 153 152 152 152 149 142 136 140 146 143 139 133 128 126 117 109 101 99 91 72 56 42 30 25 19 11 9 10 328 333 92 84 307 309 294 303 313 317 312
152 153 151 151 152 152 153 153 151 148 144 145 150 149 147 140 134 129 120 114 108 92 66 47 25 15 9 7 4 360 356 352 351 328 225 265 268 295 304 305 305 301 307
152 152 150 150 151 152 153 152 152 150 148 150 156 157 151 146 144 140 126 112 91 58 20 4 354 346 346 346 347 351 351 345 339 334 302 252 262 286 299 304 303 296 297
155 154 152 151 150 150 150 152 152 151 154 156 160 160 158 158 160 154 149 146 343 357 331 328 329 328 330 333 338 342 351 347 329 320 345 249 272 277 295 304 308 291 288
161 158 155 153 150 148 150 153 154 156 156 159 162 165 169 172 179 194 218 279 310 315 309 309 312 318 321 325 330 326 332 353 6 5 318 295 300 286 277 299 307 293 285
168 165 161 158 154 152 152 155 156 158 159 163 168 172 178 182 192 219 250 293 325 318 306 307 312 319 322 322 325 337 312 332 326 321 315 310 301 297 289 289 298 302 287
173 170 168 164 162 158 159 159 160 161 162 166 169 171 166 167 163 123 45 360 16 4 332 328 307 317 331 335 305 308 311 312 312 312 312 314 305 298 288 290 299 304 290
176 173 174 171 170 167 166 166 166 165 167 169 171 168 157 146 135 27 22 25 349 345 2 351 329 318 313 317 317 327 308 296 299 303 305 298 301 302 307 302 305 303 293
184 178 176 173 175 168 169 177 175 175 177 181 181 174 167 165 162 190 267 306 325 308 324 314 316 330 325 315 317 316 314 312 306 298 292 294 296 292 293 298 301 301 295
183 179 179 166 170 176 173 182 182 158 141 144 141 131 172 171 177 193 215 245 276 293 298 306 310 313 306 304 302 305 308 305 297 300 304 297 296 286 290 297 292 295 274
185 185 182 168 166 183 189 177 153 158 150 167 163 80 125 175 176 198 244 231 266 263 282 279 278 286 295 306 307 298 302 300 296 297 302 300 292 285 291 305 289 293 301
183 184 181 172 172 164 180 175 189 178 179 173 196 195 203 224 212 219 236 244 269 284 300 292 298 312 302 293 318 291 308 303 299 296 297 293 293 294 299 291 295 301 287
181 183 180 178 179 171 173 170 184 180 180 178 172 192 255 265 223 233 252 202 250 269 272 276 284 290 311 327 291 289 293 289 291 294 298 291 294 299 296 287 283 300 296
188 187 187 183 186 184 182 185 192 193 193 173 182 204 220 154 148 286 286 243 247 256 267 278 284 292 298 305 301 297 294 294 295 301 299 307 305 303 295 292 278 291 292
196 190 183 179 186 187 191 194 190 180 189 179 181 190 208 199 198 244 254 259 272 275 281 285 289 302 315 317 315 309 302 302 303 305 303 305 323 334 299 297 283 300 290
193 180 182 178 186 181 182 183 183 176 167 170 179 190 193 208 215 233 256 270 279 287 294 305 314 319 326 332 329 320 320 317 319 308 314 307 302 321 317 308 309 306 287
203 195 196 195 181 180 182 181 177 159 168 176 181 197 215 224 247 264 253 247 271 317 330 338 340 338 336 342 341 332 332 322 308 313 311 314 318 320 319 319 319 309 294
300 209 198 189 179 171 175 178 183 175 176 179 190 203 217 249 188 126 109 108 35 10 351 351 347 347 344 339 340 357 344 323 326 316 318 310 309 310 319 334 332 326 311
256 283 204 181 172 165 161 177 180 176 176 185 191 207 193 158 132 114 97 46 12 9 353 354 352 352 349 347 346 345 334 330 333 324 319 322 318 320 311 315 325 327 332
225 292 201 188 163 164 173 176 171 174 184 188 194 177 151 134 118 104 94 55 17 7 1 355 353 354 352 346 335 332 335 335 331 322 318 325 325 328 319 316 306 326 330
165 232 214 151 164 164 178 184 194 195 193 191 172 154 135 131 123 110 70 30 10 358 353 351 350 351 351 342 334 334 334 333 329 328 322 315 317 321 324 322 307 315 320
Wind_Speed_850mb
59 54 51 49 50 49 46 41 38 37 37 41 43 44 42 38 36 33 32 33 32 32 31 30 28 27 25 25 25 25 26 24 21 23 28 32 31 28 24 22 19 20 16
63 59 52 50 52 49 46 42 38 35 35 39 41 42 40 36 32 30 29 29 28 27 25 23 22 22 22 21 22 23 24 23 27 24 20 18 22 23 29 29 21 15 12
65 61 55 51 53 50 46 42 39 34 32 36 40 40 37 34 30 27 26 25 24 22 21 18 16 15 15 16 14 14 18 19 14 18 19 19 13 13 22 28 24 17 13
66 62 56 53 53 50 46 42 38 34 30 33 37 37 33 32 28 24 23 21 20 18 17 15 14 12 10 10 8 9 10 12 15 15 18 19 15 9 19 26 24 19 16
66 60 54 53 54 51 47 42 38 33 30 31 35 34 31 28 26 23 20 18 17 15 12 11 10 10 9 9 9 9 8 6 8 9 4 9 11 18 25 28 23 20 17
66 58 54 53 53 51 48 43 37 31 29 31 35 34 29 27 23 20 17 15 13 10 9 9 8 8 10 10 11 11 10 8 1 4 10 5 14 22 23 28 28 21 18
65 57 55 52 51 50 47 42 37 33 30 31 34 32 28 24 20 17 14 11 8 6 6 6 7 9 10 10 12 14 14 13 11 3 6 3 13 25 24 27 27 24 20
63 56 54 52 49 46 43 40 37 34 32 33 35 31 26 21 17 13 11 7 4 5 5 6 8 9 11 13 13 15 18 21 19 15 12 14 15 24 27 29 31 27 23
59 58 55 53 50 44 41 40 39 37 35 34 34 29 24 19 14 9 6 3 1 4 7 9 10 12 14 16 17 18 19 25 23 18 8 13 19 27 32 30 34 32 28
56 56 56 53 50 47 45 43 41 39 37 34 31 27 22 17 12 6 3 3 6 9 11 12 13 15 17 18 18 17 18 23 18 11 11 16 26 30 35 40 39 37 34
54 56 55 54 51 48 46 44 42 39 36 34 31 26 21 14 9 4 5 5 8 11 15 17 18 18 22 20 12 17 20 20 21 23 25 30 37 39 44 42 42 44 42
61 62 57 53 51 49 46 43 41 40 36 32 28 24 17 13 12 6 3 7 10 18 14 17 17 18 15 13 13 18 22 25 26 28 32 40 43 41 42 39 44 48 47
51 62 60 56 52 49 46 43 39 36 34 31 27 23 23 17 11 8 9 10 14 15 21 21 18 22 18 23 28 36 44 38 31 30 37 41 37 37 46 48 52 54 48
51 55 54 51 48 43 42 36 34 32 28 26 23 24 23 20 10 7 14 12 14 12 18 22 24 28 27 28 36 39 29 26 27 33 41 47 52 50 47 52 59 50 44
59 53 51 51 50 40 29 16 29 30 20 19 15 10 16 20 19 14 11 18 19 18 23 23 27 31 31 31 36 39 40 39 40 43 45 43 48 49 50 59 58 63 41
64 66 58 55 64 47 42 23 25 22 15 16 11 5 5 15 17 15 19 14 6 10 15 22 29 32 30 33 47 45 36 40 43 49 51 54 61 47 55 61 58 68 56
81 80 69 61 68 42 45 31 23 28 22 19 16 8 9 7 19 18 14 16 10 11 19 27 36 30 33 25 44 48 40 51 47 48 51 57 63 66 72 54 46 60 51
91 87 76 69 76 62 55 50 46 41 45 39 19 13 13 16 16 15 7 9 8 17 20 25 35 36 35 36 35 40 36 44 43 45 55 60 65 62 59 55 52 49 47
84 83 76 69 76 67 62 52 48 44 40 35 31 23 13 5 6 4 6 12 23 25 29 33 38 44 47 43 41 48 52 52 54 56 53 53 58 62 64 60 55 44 52
80 70 71 74 64 61 59 53 51 42 41 32 27 24 29 15 13 15 18 19 21 24 28 33 35 38 43 46 47 47 51 53 51 50 52 50 35 43 52 61 61 62 51
69 74 71 62 53 56 64 62 52 43 43 42 33 28 35 29 22 25 22 22 31 24 26 29 32 36 37 45 52 58 58 50 46 41 40 47 53 55 38 42 51 53 47
34 80 80 71 59 53 50 45 46 47 41 40 44 34 34 26 24 29 21 11 9 9 17 22 28 34 37 42 47 49 39 65 42 58 59 55 58 58 51 52 48 39 46
96 88 90 79 53 52 50 54 45 43 48 43 40 35 26 20 11 10 8 4 7 13 19 26 29 37 42 41 36 31 25 23 76 67 70 50 58 59 50 44 50 54 47
84 53 77 75 68 60 58 41 48 53 59 47 34 22 18 17 18 18 14 9 12 13 16 24 32 42 44 38 36 37 34 38 56 53 63 70 59 60 58 49 44 42 51
42 43 79 75 68 62 50 45 50 50 39 32 22 21 25 25 20 14 9 7 10 16 23 31 39 47 41 33 39 47 48 49 44 59 80 79 67 55 45 41 44 46 49
17 32 23 40 59 55 52 47 49 40 34 39 30 32 29 21 14 9 9 15 20 25 32 38 46 52 44 38 38 43 50 48 56 51 62 80 84 75 66 59 50 44 48
Wind_Direction_850mb
156 156 155 153 147 145 140 134 124 116 115 122 125 125 123 118 117 113 106 103 103 104 103 100 97 95 96 91 86 82 77 77 82 73 75 64 50 37 15 7 29 37 36
155 155 154 152 150 148 144 137 128 121 118 124 128 127 122 117 113 107 106 106 103 103 103 101 98 93 86 89 81 78 73 79 72 65 64 41 42 36 21 358 358 13 17
156 154 154 154 153 150 146 141 134 126 122 128 133 128 123 117 111 109 106 104 103 101 99 98 93 91 85 76 72 68 70 73 77 58 35 10 6 23 10 354 344 348 348
155 155 154 154 152 152 149 145 139 133 128 131 136 133 127 119 116 112 109 106 105 99 95 90 87 81 72 66 51 47 55 72 91 73 43 28 336 334 347 336 337 330 335
153 154 153 152 151 152 150 148 146 140 131 134 140 137 131 126 121 118 115 108 103 97 90 84 74 64 57 47 31 24 24 49 114 82 53 354 339 319 307 319 326 322 317
153 153 150 151 153 152 152 152 149 142 136 140 146 143 139 133 128 126 117 109 101 99 91 72 56 42 30 25 19 11 9 10 328 333 92 84 307 309 294 303 313 317 312
152 153 151 151 152 152 153 153 151 148 144 145 150 149 147 140 134 129 120 114 108 92 66 47 25 15 9 7 4 360 356 352 351 328 225 265 268 295 304 305 305 301 307
152 152 150 150 151 152 153 152 152 150 148 150 156 157 151 146 144 140 126 112 91 58 20 4 354 346 346 346 347 351 351 345 339 334 302 252 262 286 299 304 303 296 297
155 154 152 151 150 150 150 152 152 151 154 156 160 160 158 158 160 154 149 146 343 357 331 328 329 328 330 333 338 342 351 347 329 320 345 249 272 277 295 304 308 291 288
161 158 155 153 150 148 150 153 154 156 156 159 162 165 169 172 179 194 218 279 310 315 309 309 312 318 321 325 330 326 332 353 6 5 318 295 300 286 277 299 307 293 285
168 165 161 158 154 152 152 155 156 158 159 163 168 172 178 182 192 219 250 293 325 318 306 307 312 319 322 322 325 337 312 332 326 321 315 310 301 297 289 289 298 302 287
173 170 168 164 162 158 159 159 160 161 162 166 169 171 166 167 163 123 45 360 16 4 332 328 307 317 331 335 305 308 311 312 312 312 312 314 305 298 288 290 299 304 290
176 173 174 171 170 167 166 166 166 165 167 169 171 168 157 146 135 27 22 25 349 345 2 351 329 318 313 317 317 327 308 296 299 303 305 298 301 302 307 302 305 303 293
184 178 176 173 175 168 169 177 175 175 177 181 181 174 167 165 162 190 267 306 325 308 324 314 316 330 325 315 317 316 314 312 306 298 292 294 296 292 293 298 301 301 295
183 179 179 166 170 176 173 182 182 158 141 144 141 131 172 171 177 193 215 245 276 293 298 306 310 313 306 304 302 305 308 305 297 300 304 297 296 286 290 297 292 295 274
185 185 182 168 166 183 189 177 153 158 150 167 163 80 125 175 176 198 244 231 266 263 282 279 278 286 295 306 307 298 302 300 296 297 302 300 292 285 291 305 289 293 301
183 184 181 172 172 164 180 175 189 178 179 173 196 195 203 224 212 219 236 244 269 284 300 292 298 312 302 293 318 291 308 303 299 296 297 293 293 294 299 291 295 301 287
181 183 180 178 179 171 173 170 184 180 180 178 172 192 255 265 223 233 252 202 250 269 272 276 284 290 311 327 291 289 293 289 291 294 298 291 294 299 296 287 283 300 296
188 187 187 183 186 184 182 185 192 193 193 173 182 204 220 154 148 286 286 243 247 256 267 278 284 292 298 305 301 297 294 294 295 301 299 307 305 303 295 292 278 291 292
196 190 183 179 186 187 191 194 190 180 189 179 181 190 208 199 198 244 254 259 272 275 281 285 289 302 315 317 315 309 302 302 303 305 303 305 323 334 299 297 283 300 290
193 180 182 178 186 181 182 183 183 176 167 170 179 190 193 208 215 233 256 270 279 287 294 305 314 319 326 332 329 320 320 317 319 308 314 307 302 321 317 308 309 306 287
203 195 196 195 181 180 182 181 177 159 168 176 181 197 215 224 247 264 253 247 271 317 330 338 340 338 336 342 341 332 332 322 308 313 311 314 318 320 319 319 319 309 294
300 209 198 189 179 171 175 178 183 175 176 179 190 203 217 249 188 126 109 108 35 10 351 351 347 347 344 339 340 357 344 323 326 316 318 310 309 310 319 334 332 326 311
256 283 204 181 172 165 161 177 180 176 176 185 191 207 193 158 132 114 97 46 12 9 353 354 352 352 349 347 346 345 334 330 333 324 319 322 318 320 311 315 325 327 332
225 292 201 188 163 164 173 176 171 174 184 188 194 177 151 134 118 104 94 55 17 7 1 355 353 354 352 346 335 332 335 335 331 322 318 325 325 328 319 316 306 326 330
165 232 214 151 164 164 178 184 194 195 193 191 172 154 135 131 123 110 70 30 10 358 353 351 350 351 351 342 334 334 334 333 329 328 322 315 317 321 324 322 307 315 320